sat.trackr.live / text

‹ back to catalog

STARLINK-5986

NORAD 56452 · 2023-064E

PAYLOAD ACTIVE UNKNOWN

§ Identity

Operator
Country
US
Launch date
2023-05-10
Launch site
AFWTR
Launch vehicle
Mass (kg)
RCS (m²)

Purposes: comms

External: N2YO · Heavens-Above · Gunter

§ Orbital elements

Epoch: 2026-05-24T20:53:53.128320Z

Period
96.11 min
Inclination
69.9987°
Eccentricity
0.0002560
Mean motion
14.98329438 rev/d
Perigee alt
570.3 km
Apogee alt
573.8 km
Semi-major
6,950.2 km
B*
1.2325e-5
RAAN
312.5201°
Arg perigee
269.9921°
Mean anomaly
90.0944°
Rev number
16,665

§ Raw data

STARLINK-59861 56452U 23064E   26144.87075380  .00000054  00000+0  12325-4 0  99972 56452  69.9987 312.5201 0002560 269.9921  90.0944 14.98329438166658

JSON: /api/v1/satellites/56452 · /tle

For live sub-satellite position, see the globe view (requires WebGL).

§ Visibility from observer

Set your observer location to see the next 7 days of passes ≥ 10°. The values pass through the URL so the page stays shareable.

No JS? Fill the form by hand. The geolocation button needs JavaScript.